This demonstration page uses our WeatherBlox Daily Observations layout. Learn more.

Left ArrowRight Arrow

47.50024, -111.30081

Hourly Observations for May 6, 2022

Temp ( °F °C ) Dew Point ( °F °C ) Humidity (%) Winds ( mph kmh ) Pressure ( in mb ) Visibility ( mi km ) Precip ( " mm )
12:53 am 00:53 Mostly Clear 52 11.1 42 5.6 69 69 SW 21 33 29.55 1001 10 16 0.00 0.00
1:53 am 01:53 Mostly Cloudy 51 10.6 40 4.4 66 66 SW 21 33 29.58 1002 10 16 0.00 0.00
2:53 am 02:53 Clear 49 9.4 37 2.8 64 64 SSW 20 31 29.59 1002 10 16 0.00 0.00
3:53 am 03:53 Clear 49 9.4 35 1.7 59 59 SW 21 33 29.59 1002 10 16 0.00 0.00
4:53 am 04:53 Clear 47 8.3 33 0.6 59 59 SW 22 35 29.60 1003 10 16 0.00 0.00
5:53 am 05:53 Clear 47 8.3 33 0.6 59 59 SW 23 37 29.60 1002 10 16 0.00 0.00
6:53 am 06:53 Sunny 48 8.9 34 1.1 58 58 SW 18 30 29.65 1004 10 16 0.00 0.00
7:53 am 07:53 Sunny 52 11.1 34 1.1 50 50 SW 25 41 29.63 1003 10 16 0.00 0.00
8:53 am 08:53 Sunny 55 12.8 34 1.1 45 45 SW 29 46 29.65 1004 10 16 0.00 0.00
9:53 am 09:53 Sunny 58 14.4 33 0.6 39 39 SW 31 50 29.65 1004 10 16 0.00 0.00
10:53 am 10:53 Sunny 61 16.1 34 1.1 36 36 WSW 24 39 29.66 1004 10 16 0.00 0.00
11:53 am 11:53 Sunny 62 16.7 33 0.6 34 34 WSW 35 56 29.62 1003 10 16 0.00 0.00
12:53 pm 12:53 Sunny 63 17.2 32 0 31 31 WSW 35 56 29.61 1003 10 16 0.00 0.00
1:53 pm 13:53 Sunny 65 18.3 30 -1.1 27 27 WSW 29 46 29.60 1002 10 16 0.00 0.00
2:53 pm 14:53 Sunny 66 18.9 32 0 28 28 WSW 30 48 29.59 1002 10 16 0.00 0.00
3:53 pm 15:53 Sunny 67 19.4 31 -0.6 26 26 WSW 24 39 29.57 1001 10 16 0.00 0.00
4:53 pm 16:53 Sunny 67 19.4 33 0.6 28 28 W 20 31 29.55 1001 10 16 0.00 0.00
5:53 pm 17:53 Sunny 65 18.3 32 0 29 29 W 23 37 29.54 1000 10 16 0.00 0.00
6:53 pm 18:53 Mostly Sunny 56 13.3 36 2.2 47 47 WNW 18 30 29.55 1001 10 16 0.00 0.00
7:53 pm 19:53 Partly Cloudy 53 11.7 39 3.9 59 59 NW 16 26 29.55 1001 10 16 0.00 0.00
8:53 pm 20:53 Mostly Clear 52 11.1 38 3.3 59 59 WNW 14 22 29.54 1001 10 16 0.00 0.00
9:53 pm 21:53 Partly Cloudy 48 8.9 38 3.3 68 68 S 3 6 29.54 1000 10 16 0.00 0.00
10:53 pm 22:53 Cloudy 49 9.4 39 3.9 69 69 SW 10 17 29.55 1001 10 16 0.00 0.00
11:53 pm 23:53 Cloudy 49 9.4 42 5.6 77 77 S 12 19 29.50 999 10 16 0.00 0.00

Powered by AerisWeather